Dewpoint
15 10 9 10 12 12 11 9 5 15 16 13 11 4 2 1 3 4 6 8 10 11 12 17 16 20 26 30 31 33 34 35 31 34 36 37 38 39 39 40 40 41 41 40
11 7 9 16 14 15 10 5 9 17 18 12 9 2 9 -1 1 3 7 8 10 13 16 15 16 20 27 29 30 30 31 31 29 34 35 37 38 39 39 41 40 40 41 41
9 9 14 14 10 7 8 7 5 2 16 16 15 12 1 2 2 5 7 9 12 14 16 14 16 20 28 30 32 29 29 28 31 33 35 36 37 39 39 40 40 40 40 40
10 11 11 10 8 9 4 11 8 13 14 9 15 11 -0 1 2 4 7 10 13 16 15 15 17 23 29 29 29 29 28 29 31 33 33 35 37 37 39 40 41 42 40 39
8 8 7 4 4 10 3 11 12 16 12 13 14 12 2 1 2 4 8 11 14 18 15 16 17 25 29 28 29 29 28 29 30 31 32 35 36 37 39 40 40 40 41 41
11 14 11 8 9 10 8 11 14 16 13 9 6 5 -1 1 2 6 9 12 14 18 15 16 19 29 30 29 30 28 28 28 28 30 34 34 35 36 38 39 39 40 40 41
13 12 12 11 -0 5 3 -0 -2 -8 -4 -2 2 1 -0 3 7 9 10 13 16 17 16 17 19 28 29 30 28 26 29 31 30 32 34 34 34 36 37 38 39 39 39 40
10 9 9 9 2 -2 -1 -2 -5 -11 -11 -3 6 1 -1 6 8 11 13 15 17 16 17 18 22 27 29 28 27 28 31 32 31 32 34 34 34 37 39 39 39 39 39 40
9 8 11 7 4 2 -8 -4 2 -0 5 1 1 -2 3 7 8 11 14 16 16 16 17 18 24 29 30 28 28 30 31 31 30 32 34 34 34 35 37 40 39 39 39 40
6 7 10 12 8 5 -8 0 -11 2 -9 -13 -14 -4 -3 4 8 12 15 16 16 17 17 18 26 30 30 29 29 30 32 32 31 31 32 33 33 35 35 38 36 37 39 40
9 10 8 9 5 2 -2 -7 4 4 1 -7 -7 -13 2 6 10 12 16 17 16 17 17 18 27 30 28 28 28 29 31 32 33 34 33 32 33 34 34 35 35 35 37 38
15 9 8 5 7 5 3 2 -2 5 -4 5 2 1 7 7 11 15 17 17 16 17 18 20 28 31 28 27 28 29 31 33 33 33 32 32 33 33 33 33 34 34 34 35
15 10 10 11 11 12 6 5 10 10 8 3 -3 -9 7 6 12 16 18 18 16 17 18 21 28 30 27 28 29 30 32 33 33 33 31 32 32 32 32 32 33 33 33 33
16 9 12 13 10 11 8 9 9 3 1 0 5 -1 1 5 12 17 19 18 16 18 18 23 28 30 28 27 30 31 32 33 33 33 31 31 32 32 32 32 32 32 32 32
13 6 5 7 7 6 3 6 9 6 1 2 -7 3 5 8 14 18 19 17 16 18 19 25 29 32 29 29 31 31 32 32 33 33 31 31 32 33 32 32 32 32 32 32
13 11 5 5 5 5 2 3 8 9 7 4 5 3 6 13 20 18 18 16 16 18 18 27 30 32 31 29 32 32 32 31 33 33 31 31 32 33 33 32 32 32 31 31
10 12 11 10 8 5 8 7 4 5 6 2 -3 2 13 16 19 19 19 17 17 18 18 28 31 32 32 30 32 33 32 31 33 32 31 31 31 32 32 33 32 31 31 30
12 15 14 11 10 7 7 6 4 3 1 5 9 11 15 19 21 20 18 17 18 18 19 29 32 32 32 32 33 33 33 32 33 32 31 31 30 31 32 32 32 31 30 30
17 16 10 12 9 9 7 6 6 1 -7 11 11 14 17 20 13 8 14 19 19 18 25 29 32 31 31 31 32 34 32 33 33 33 31 31 31 30 31 31 33 32 28 29
18 18 17 8 6 8 6 7 6 3 -8 13 15 16 19 16 -1 6 17 19 19 20 28 29 31 31 32 32 33 33 32 32 33 34 32 32 31 30 30 31 32 32 29 28
13 11 10 13 8 11 11 11 12 -3 1 15 18 19 20 14 13 17 20 17 18 22 28 29 31 31 32 33 34 33 32 32 34 35 32 31 31 30 31 31 32 32 31 30
15 13 11 10 6 10 14 13 4 6 16 19 21 22 19 19 20 18 17 18 20 27 28 28 30 31 33 34 33 33 31 34 35 35 32 31 30 29 29 31 31 32 31 30
13 19 20 19 16 13 15 11 14 18 18 21 22 21 19 19 16 16 16 18 21 27 28 29 31 31 31 34 34 33 33 34 34 34 32 30 29 29 29 29 33 31 30 30
13 17 17 15 17 12 15 18 18 19 20 23 20 20 20 16 15 15 18 20 23 27 28 29 31 32 32 33 34 34 33 33 34 34 32 29 29 29 28 29 31 34 32 30
13 14 12 10 8 11 14 18 18 21 24 20 21 20 18 14 15 16 19 21 24 28 29 29 30 32 33 34 34 34 34 34 33 33 32 29 29 28 28 28 30 33 34 34
12 12 11 13 11 13 12 17 21 24 21 21 20 18 17 15 16 17 21 23 26 28 29 30 31 32 33 34 34 34 35 33 33 33 33 30 29 28 28 28 28 32 34 35
Lifted_Index
9 8 8 8 9 8 8 7 6 8 9 9 8 10 12 15 16 17 16 15 14 12 10 9 10 10 12 13 13 14 14 14 15 14 14 14 14 13 13 13 14 14 14 14
8 8 8 9 9 8 8 6 6 7 9 9 8 9 11 14 16 16 15 14 13 11 10 9 9 11 12 13 14 14 14 15 15 15 14 14 13 13 13 13 13 13 13 13
8 9 9 9 9 8 7 6 6 6 7 8 7 8 10 13 15 15 14 13 12 11 9 9 10 11 13 13 14 14 15 15 15 15 14 14 13 13 12 12 12 12 12 12
8 9 9 9 8 7 7 7 6 6 5 6 6 6 8 11 13 14 14 13 12 11 10 10 10 12 13 14 14 14 14 14 15 15 14 14 13 12 12 11 11 11 11 12
8 9 9 8 8 8 7 7 7 6 5 5 5 6 7 10 12 13 13 13 12 11 11 11 11 12 13 14 14 14 14 14 14 14 14 14 13 13 12 11 11 11 11 11
8 9 10 9 9 9 8 7 6 5 4 4 5 6 7 10 12 13 14 13 12 11 11 11 12 13 14 14 15 15 14 14 14 14 14 13 13 13 13 12 11 11 11 11
7 8 9 10 9 8 8 6 4 2 2 3 5 6 8 11 13 14 14 13 13 12 10 11 12 13 14 14 15 15 15 14 14 14 14 13 13 14 13 13 12 11 11 11
4 5 8 10 9 8 7 5 4 2 2 3 5 7 9 12 14 15 14 14 13 12 10 11 12 13 14 15 15 15 15 15 14 14 13 13 13 14 14 13 12 11 11 10
4 5 8 10 10 9 8 7 6 4 3 3 4 7 10 12 14 14 13 13 13 12 10 11 12 14 14 15 15 15 15 15 15 14 13 13 13 13 13 12 11 11 10 9
6 6 8 10 10 9 8 8 7 6 3 2 3 6 9 12 13 13 13 13 12 11 10 11 13 14 15 15 15 15 15 15 15 14 13 13 13 13 12 12 11 10 9 9
7 6 6 8 9 9 8 8 7 6 4 3 3 5 10 13 14 14 13 13 12 11 10 11 13 14 15 15 15 15 15 15 15 14 13 13 12 12 12 11 10 9 9 8
8 6 5 6 8 9 8 8 8 7 6 5 4 7 12 15 16 15 14 13 12 11 10 11 13 14 14 15 15 15 15 15 15 14 14 13 12 12 11 10 9 9 9 8
8 6 4 4 6 8 8 8 8 8 7 5 5 8 12 15 15 15 13 13 12 11 10 11 13 14 14 14 15 15 15 15 14 14 14 13 13 12 11 10 9 9 8 8
8 6 4 4 5 6 6 7 8 8 7 6 6 8 12 14 15 14 14 13 12 11 10 11 13 14 14 14 14 14 15 15 14 14 14 13 13 12 11 10 9 9 8 8
8 6 5 5 5 5 5 6 7 8 7 7 7 9 12 15 15 15 14 13 12 10 9 11 13 14 14 14 14 14 14 15 14 14 13 13 13 12 12 11 10 9 9 8
8 6 5 5 5 5 5 6 7 8 8 8 8 10 14 16 16 16 14 13 12 10 10 11 13 14 14 14 14 14 14 15 14 14 13 13 12 12 12 12 11 10 10 9
7 6 5 4 4 4 4 6 7 8 9 9 9 12 15 17 17 17 15 14 12 11 10 11 13 14 14 15 15 14 15 15 14 13 13 12 12 12 12 11 11 11 11 10
8 7 5 3 3 3 4 6 8 8 9 10 11 13 15 17 18 18 17 15 13 12 11 12 13 14 15 15 15 15 15 14 14 13 12 12 12 12 11 11 11 12 11 11
9 8 5 3 2 2 4 7 8 8 8 10 12 14 15 17 17 18 18 16 14 13 12 12 14 15 15 15 15 15 14 14 13 13 12 12 11 11 11 11 12 12 12 12
9 8 5 4 3 3 5 7 9 7 7 10 13 14 15 16 16 17 18 17 15 13 13 13 14 15 15 15 15 14 14 13 13 13 12 12 11 11 11 11 12 12 12 12
7 6 5 4 3 3 6 8 8 7 8 11 14 15 16 17 18 19 19 18 15 14 13 13 14 15 15 15 15 14 13 13 14 14 13 12 11 11 11 11 11 11 11 12
6 6 5 5 4 5 7 8 8 9 11 13 15 17 18 19 20 20 20 19 16 14 13 13 14 15 15 16 15 14 13 14 14 14 13 12 11 11 11 11 11 11 11 11
7 7 6 6 6 6 8 9 10 12 13 14 16 18 19 20 21 21 20 19 17 14 13 13 13 14 15 15 15 14 14 14 14 13 12 11 11 11 11 11 11 11 11 11
8 8 8 7 7 7 8 9 11 13 14 16 18 19 20 21 21 21 20 19 17 15 13 12 13 14 15 15 15 15 14 14 13 12 12 11 11 11 11 11 11 11 11 11
9 9 8 8 7 7 8 9 12 13 15 17 18 19 20 21 21 21 21 20 18 15 13 12 13 13 14 15 15 15 15 14 13 12 11 11 11 11 12 12 12 12 12 12
9 8 8 7 8 7 8 9 12 14 15 17 18 19 20 21 22 21 21 20 19 16 14 12 12 13 14 15 15 15 15 14 13 12 11 11 11 11 12 12 12 12 13 13